EW4347 Weather Reports


time (UTC)temp
F
wind
direction
speed
knots
gust
knots
rain 1hr
in
rain 24hr
in
rain mn
in
humidity
%
barometer
mb
20260505183714 75 147 12.2 21.7 0.00 0.00 0.00 46 1003.0
20260505183214 75 170 7.8 16.5 0.00 0.00 0.00 46 1003.0
20260505183008 75 79 7.8 16.5 0.00 0.00 0.00 47 1003.1
20260505182714 75 137 6.1 21.7 0.00 0.00 0.00 47 1003.0
20260505182213 75 155 7.0 21.7 0.00 0.00 0.00 48 1003.1
20260505181713 75 139 9.6 20.0 0.00 0.00 0.00 46 1003.3
20260505181213 75 80 8.7 20.0 0.00 0.00 0.00 47 1003.2
20260505180713 75 110 7.8 20.0 0.00 0.00 0.00 47 1003.2
20260505180212 76 143 7.0 18.2 0.00 0.00 0.00 47 1003.4
20260505175651 75 108 8.7 19.1 0.00 0.00 0.00 45 1003.4
20260505175129 75 118 8.7 19.1 0.00 0.00 0.00 47 1003.6
20260505174629 75 152 9.6 20.9 0.00 0.00 0.00 46 1003.8
20260505174046 75 57 11.3 23.5 0.00 0.00 0.00 46 1003.8
20260505173525 75 104 10.4 23.5 0.00 0.00 0.00 46 1003.8
20260505173025 75 59 7.0 21.7 0.00 0.00 0.00 46 1003.8
20260505172504 76 45 5.2 15.6 0.00 0.00 0.00 48 1003.8
20260505172003 76 69 8.7 16.5 0.00 0.00 0.00 46 1003.8
20260505171502 76 45 7.0 16.5 0.00 0.00 0.00 46 1003.8
20260505171002 76 14 5.2 17.4 0.00 0.00 0.00 46 1003.9
20260505170502 75 115 7.0 17.4 0.00 0.00 0.00 46 1004.1
20260505170002 75 116 7.0 16.5 0.00 0.00 0.00 46 1004.0
20260505165501 75 143 7.8 20.0 0.00 0.00 0.00 47 1004.1
20260505165001 74 81 5.2 19.1 0.00 0.00 0.00 47 1004.3
20260505164501 74 111 9.6 19.1 0.00 0.00 0.00 45 1004.3
20260505164000 74 108 8.7 17.4 0.00 0.00 0.00 46 1004.4
20260505163500 74 118 6.1 14.8 0.00 0.00 0.00 47 1004.5
20260505163000 73 146 7.0 16.5 0.00 0.00 0.00 48 1004.6
20260505162459 73 65 7.8 16.5 0.00 0.00 0.00 46 1004.8
20260505161938 74 83 3.5 15.6 0.00 0.00 0.00 48 1005.0
20260505161438 74 87 6.1 16.5 0.00 0.00 0.00 47 1004.9
20260505160937 74 162 5.2 13.9 0.00 0.00 0.00 47 1005.1
20260505160437 74 91 4.3 14.8 0.00 0.00 0.00 49 1005.2
20260505153228 72 104 7.0 14.8 0.00 0.00 0.00 49 1006.0
20260505153136 72 109 6.1 14.8 0.00 0.00 0.00 47 1005.9
20260505152728 72 114 6.1 14.8 0.00 0.00 0.00 47 1005.9
20260505152228 72 91 6.1 15.6 0.00 0.00 0.00 46 1005.9
20260505151728 72 75 9.6 15.6 0.00 0.00 0.00 47 1005.8
20260505151619 72 66 7.0 13.9 0.00 0.00 0.00 47 1005.8
20260505151228 71 64 6.1 13.9 0.00 0.00 0.00 47 1005.6
20260505150727 72 121 7.8 13.0 0.00 0.00 0.00 46 1005.7
20260505150227 71 84 4.3 13.9 0.00 0.00 0.00 50 1005.9
20260505140641 67 22 5.2 13.9 0.00 0.00 0.00 51 1005.8
20260505140141 67 104 7.0 15.6 0.00 0.00 0.00 51 1005.8
20260505124555 63 23 4.3 9.6 0.00 0.00 0.00 57 1006.6
20260505124054 62 351 1.7 8.7 0.00 0.00 0.00 59 1006.7
20260505123554 62 52 4.3 8.7 0.00 0.00 0.00 59 1006.7
20260505123053 61 75 3.5 9.6 0.00 0.00 0.00 59 1006.6
20260505122553 61 85 3.5 12.2 0.00 0.00 0.00 60 1006.7
20260505122053 61 83 6.1 16.5 0.00 0.00 0.00 59 1006.9
20260505121553 61 47 4.3 12.2 0.00 0.00 0.00 63 1006.9
20260505121053 60 83 2.6 8.7 0.00 0.00 0.00 65 1006.9
20260505120552 60 5 3.5 12.2 0.00 0.00 0.00 63 1006.8
20260505120010 59 59 7.0 12.2 0.00 0.00 0.00 63 1006.7
20260505115509 59 47 3.5 8.7 0.00 0.00 0.00 66 1006.8
20260505115009 57 91 1.7 8.7 0.00 0.00 0.00 70 1007.0
20260505114509 56 44 0.9 5.2 0.00 0.00 0.00 75 1007.0
20260505114009 55 156 0.9 2.6 0.00 0.00 0.00 76 1006.9
20260505113447 55 150 0.0 5.2 0.00 0.00 0.00 76 1007.0
20260505113145 55 153 0.9 5.2 0.00 0.00 0.00 75 1007.1
20260505112947 55 124 1.7 5.2 0.00 0.00 0.00 75 1007.1
20260505112446 56 155 2.6 5.2 0.00 0.00 0.00 73 1007.1
20260505111946 55 100 1.7 7.8 0.00 0.00 0.00 72 1007.0
20260505111631 55 90 1.7 7.8 0.00 0.00 0.00 74 1007.0
20260505111446 55 106 2.6 7.8 0.00 0.00 0.00 74 1007.0
20260505110945 54 93 3.5 7.8 0.00 0.00 0.00 74 1007.0
20260505110445 53 5 0.9 8.7 0.00 0.00 0.00 80 1007.0
20260505110109 52 100 2.6 8.7 0.00 0.00 0.00 80 1007.1
20260505101943 46 60 0.9 5.2 0.00 0.00 0.00 93 1007.0
20260505101538 45 60 1.7 5.2 0.00 0.00 0.00 95 1007.0
20260505101442 45 60 1.7 5.2 0.00 0.00 0.00 95 1007.0
20260505100942 44 51 1.7 6.1 0.00 0.00 0.00 96 1006.9
20260505100442 43 22 0.9 2.6 0.00 0.00 0.00 96 1006.9
20260505095941 43 107 0.9 3.5 0.00 0.00 0.00 97 1006.8
20260505095441 43 105 0.9 6.1 0.00 0.00 0.00 96 1006.9
20260505094941 43 87 0.0 6.1 0.00 0.00 0.00 96 1006.9
20260505094440 43 83 0.9 3.5 0.00 0.00 0.00 97 1006.9
20260505093940 43 83 0.9 5.2 0.00 0.00 0.00 98 1007.0
20260505093440 42 72 1.7 5.2 0.00 0.00 0.00 98 1006.9
20260505092940 42 36 0.0 3.5 0.00 0.00 0.00 98 1006.9
20260505092440 41 29 0.9 3.5 0.00 0.00 0.00 98 1006.8
20260505091939 41 20 0.9 5.2 0.00 0.00 0.00 98 1006.9
20260505091439 40 50 0.9 5.2 0.00 0.00 0.00 98 1006.8
20260505090938 40 26 0.9 5.2 0.00 0.00 0.00 98 1006.9
20260505090438 40 72 0.0 5.2 0.00 0.00 0.00 98 1006.9
20260505085938 39 39 0.9 3.5 0.00 0.00 0.00 97 1007.0
20260505085437 39 39 0.9 3.5 0.00 0.00 0.00 97 1007.0
20260505084937 39 33 0.0 1.7 0.00 0.00 0.00 97 1007.0
20260505084437 39 32 0.0 0.9 0.00 0.00 0.00 97 1007.0
20260505083937 39 32 0.0 0.9 0.00 0.00 0.00 97 1007.0
20260505083436 39 32 0.0 0.9 0.00 0.00 0.00 97 1007.0
20260505082936 39 32 0.0 0.0 0.00 0.00 0.00 97 1007.0
20260505082436 39 32 0.0 0.0 0.00 0.00 0.00 97 1007.1
20260505081935 39 32 0.0 0.0 0.00 0.00 0.00 97 1007.2
20260505081353 39 32 0.0 0.0 0.00 0.00 0.00 97 1007.2
20260505080853 39 32 0.0 0.0 0.00 0.00 0.00 97 1007.3
20260505080331 39 32 0.0 0.0 0.00 0.00 0.00 97 1007.2
20260505075831 39 32 0.0 0.9 0.00 0.00 0.00 97 1007.2
20260505075331 39 32 0.0 0.9 0.00 0.00 0.00 97 1007.3
20260505074831 39 32 0.0 0.9 0.00 0.00 0.00 97 1007.2
20260505074330 40 32 0.0 0.9 0.00 0.00 0.00 97 1007.2
20260505073830 40 33 0.0 0.9 0.00 0.00 0.00 97 1007.1
20260505073329 40 33 0.0 0.9 0.00 0.00 0.00 96 1007.2
20260505072829 40 33 0.0 0.9 0.00 0.00 0.00 96 1007.2
20260505072329 40 33 0.0 0.9 0.00 0.00 0.00 96 1007.2
20260505071828 40 33 0.0 0.9 0.00 0.00 0.00 96 1007.2
20260505071654 40 33 0.0 0.9 0.00 0.00 0.00 96 1007.2
20260505071328 40 33 0.0 0.9 0.00 0.00 0.00 96 1007.1
20260505070828 40 33 0.0 0.9 0.00 0.00 0.00 96 1007.1
20260505070327 40 33 0.0 0.9 0.00 0.00 0.00 96 1007.1
20260505070140 40 33 0.0 0.9 0.00 0.00 0.00 96 1007.2
20260505065806 40 33 0.0 1.7 0.00 0.00 0.00 96 1007.2
20260505065306 40 33 0.0 1.7 0.00 0.00 0.00 96 1007.2
20260505064805 40 33 0.0 0.9 0.00 0.00 0.00 96 1007.1
20260505064624 40 33 0.0 0.9 0.00 0.00 0.00 96 1007.2
20260505064305 40 33 0.0 0.9 0.00 0.00 0.00 96 1007.1
20260505063805 40 33 0.0 0.0 0.00 0.00 0.00 96 1007.2
20260505063304 41 33 0.0 0.0 0.00 0.00 0.00 96 1007.2
20260505063058 41 33 0.0 0.0 0.00 0.00 0.00 96 1007.2
20260505062804 41 33 0.0 0.0 0.00 0.00 0.00 96 1007.2
20260505062242 41 33 0.0 1.7 0.00 0.00 0.00 96 1007.2
20260505061721 41 33 0.0 1.7 0.00 0.00 0.00 96 1007.1
20260505061544 41 33 0.0 0.9 0.00 0.00 0.00 96 1007.1
20260505061200 41 33 0.0 1.7 0.00 0.00 0.00 96 1007.1
20260505060639 41 33 0.0 1.7 0.00 0.00 0.00 96 1007.1
20260505060138 41 33 0.0 1.7 0.00 0.00 0.00 96 1007.1
20260505055617 41 33 0.0 1.7 0.00 0.00 0.00 96 1007.0
20260505055116 41 33 0.0 2.6 0.00 0.00 0.00 96 1007.0
20260505054616 41 33 0.9 2.6 0.00 0.00 0.00 95 1007.1
20260505054513 41 33 0.9 2.6 0.00 0.00 0.00 95 1007.1
20260505054055 41 28 0.0 1.7 0.00 0.00 0.00 95 1007.0
20260505053554 41 28 0.0 0.9 0.00 0.00 0.00 96 1007.1
20260505053054 41 28 0.0 0.9 0.00 0.00 0.00 96 1007.0
20260505052554 41 28 0.0 0.9 0.00 0.00 0.00 96 1007.0
20260505052054 41 28 0.0 2.6 0.00 0.00 0.00 96 1007.0
20260505051554 41 28 0.0 2.6 0.00 0.00 0.00 96 1006.9
20260505051053 41 27 0.0 1.7 0.00 0.00 0.00 96 1006.9
20260505050553 41 27 0.0 1.7 0.00 0.00 0.00 96 1006.9
20260505041425 42 27 0.0 0.9 0.00 0.00 0.00 94 1006.7
20260505040925 42 27 0.0 0.9 0.00 0.00 0.00 94 1006.7
20260505040424 42 27 0.0 0.9 0.00 0.00 0.00 94 1006.7
20260505035924 42 27 0.0 0.9 0.00 0.00 0.00 95 1006.6
20260505035424 42 27 0.0 0.9 0.00 0.00 0.00 94 1006.7
20260505034841 42 27 0.0 0.0 0.00 0.00 0.00 94 1006.6
20260505034341 42 27 0.0 0.9 0.00 0.00 0.00 94 1006.5
20260505033841 42 27 0.0 0.9 0.00 0.00 0.00 94 1006.6
20260505033340 43 27 0.0 0.9 0.00 0.00 0.00 93 1006.5
20260505032840 43 27 0.0 0.0 0.00 0.00 0.00 92 1006.5
20260505032340 43 27 0.0 0.0 0.00 0.00 0.00 93 1006.5
20260505031839 43 27 0.0 0.0 0.00 0.00 0.00 92 1006.5
20260505031339 43 27 0.0 0.0 0.00 0.00 0.00 92 1006.5
20260505030839 43 27 0.0 0.0 0.00 0.00 0.00 92 1006.5
20260505030339 43 27 0.0 0.9 0.00 0.00 0.00 92 1006.6
20260505025838 44 27 0.0 0.9 0.00 0.00 0.00 93 1006.6
20260505025338 44 27 0.0 0.9 0.00 0.00 0.00 93 1006.8
20260505024838 44 27 0.0 0.0 0.00 0.00 0.00 92 1006.8
20260505024648 44 27 0.0 0.0 0.00 0.00 0.00 91 1006.8
20260505024317 44 27 0.0 0.0 0.00 0.00 0.00 90 1006.8
20260505023816 44 27 0.0 0.9 0.00 0.00 0.00 90 1006.8
20260505023316 45 27 0.0 0.9 0.00 0.00 0.00 90 1006.8
20260505023134 45 27 0.0 0.9 0.00 0.00 0.00 90 1006.8
20260505022816 45 27 0.0 0.0 0.00 0.00 0.00 90 1006.9
20260505022316 45 27 0.0 0.0 0.00 0.00 0.00 89 1006.9
20260505021815 45 27 0.0 0.0 0.00 0.00 0.00 87 1006.8
20260505021607 46 27 0.0 0.9 0.00 0.00 0.00 87 1006.9
20260505021315 46 27 0.0 0.9 0.00 0.00 0.00 87 1006.8
20260505020815 46 27 0.0 1.7 0.00 0.00 0.00 87 1006.7
20260505020315 46 27 0.0 1.7 0.00 0.00 0.00 86 1006.9
20260505020055 46 27 0.0 2.6 0.00 0.00 0.00 85 1006.9
20260505015815 46 27 0.0 2.6 0.00 0.00 0.00 85 1006.8
20260505015314 46 28 0.9 1.7 0.00 0.00 0.00 86 1006.8
20260505014814 46 31 0.0 1.7 0.00 0.00 0.00 84 1006.8
20260505014540 47 31 0.0 1.7 0.00 0.00 0.00 84 1006.8
20260505014314 47 31 0.0 2.6 0.00 0.00 0.00 85 1006.8
20260505013813 47 32 0.9 2.6 0.00 0.00 0.00 86 1006.7
20260505013252 46 32 0.9 1.7 0.00 0.00 0.00 85 1006.7
20260505013025 46 32 0.9 1.7 0.00 0.00 0.00 86 1006.7
20260505012752 46 32 0.9 1.7 0.00 0.00 0.00 88 1006.7
20260505012252 46 33 0.0 0.9 0.00 0.00 0.00 88 1006.8
20260505011709 46 32 0.0 2.6 0.00 0.00 0.00 87 1006.6
20260505011501 46 33 0.0 2.6 0.00 0.00 0.00 87 1006.6
20260505011209 47 32 1.7 2.6 0.00 0.00 0.00 88 1006.5
20260505010709 47 60 0.0 0.9 0.00 0.00 0.00 87 1006.4
20260505010208 47 60 0.0 1.7 0.00 0.00 0.00 87 1006.3
20260505005708 47 60 0.0 2.6 0.00 0.00 0.00 85 1006.3
20260505005208 48 60 0.9 2.6 0.00 0.00 0.00 84 1006.3
20260505004707 48 96 0.9 2.6 0.00 0.00 0.00 84 1006.2
20260505004146 48 99 0.9 1.7 0.00 0.00 0.00 84 1006.1
20260505003646 49 100 0.0 1.7 0.00 0.00 0.00 85 1006.0
20260505003124 49 100 0.0 0.9 0.00 0.00 0.00 82 1005.9
20260505002624 49 100 0.0 0.9 0.00 0.00 0.00 82 1005.7
20260505002124 50 100 0.0 1.7 0.00 0.00 0.00 82 1005.7
20260505001623 50 100 0.9 1.7 0.00 0.00 0.00 81 1005.7
20260505001123 50 102 0.0 0.9 0.00 0.00 0.00 80 1005.6
20260505000623 50 102 0.0 0.9 0.00 0.00 0.00 80 1005.6
20260505000122 50 102 0.0 0.9 0.00 0.00 0.00 82 1005.5
20260504235540 51 102 0.0 0.0 0.00 0.00 0.00 80 1005.6
20260504235040 51 102 0.0 0.9 0.00 0.00 0.00 79 1005.6
20260504234539 52 102 0.0 0.9 0.00 0.00 0.00 78 1005.5
20260504234039 53 102 0.0 0.9 0.00 0.00 0.00 76 1005.4
20260504233539 53 102 0.0 0.0 0.00 0.00 0.00 77 1005.3
20260504233039 54 102 0.0 0.0 0.00 0.00 0.00 75 1005.3
20260504232538 55 103 0.0 0.0 0.00 0.00 0.00 73 1005.3
20260504232038 55 103 0.0 0.9 0.00 0.00 0.00 71 1005.2
20260504231538 56 103 0.0 1.7 0.00 0.00 0.00 68 1005.1
20260504231037 57 103 0.0 1.7 0.00 0.00 0.00 66 1005.1
20260504230537 58 102 0.0 2.6 0.00 0.00 0.00 65 1005.1
20260504230037 59 102 0.9 2.6 0.00 0.00 0.00 62 1005.0
20260504225537 59 103 0.9 2.6 0.00 0.00 0.00 60 1005.0
20260504225036 59 104 0.9 2.6 0.00 0.00 0.00 59 1005.0
20260504224536 58 112 0.0 3.5 0.00 0.00 0.00 60 1005.0
20260504224035 59 113 0.9 3.5 0.00 0.00 0.00 62 1004.9
20260504223535 59 122 0.9 3.5 0.00 0.00 0.00 58 1004.9
20260504223035 59 168 0.9 6.1 0.00 0.00 0.00 56 1004.9
20260504222535 60 119 0.9 6.1 0.00 0.00 0.00 55 1004.9
20260504222034 59 165 1.7 6.1 0.00 0.00 0.00 56 1004.8
20260504221650 59 162 0.0 8.7 0.00 0.00 0.00 56 1004.9
20260504221534 59 136 1.7 8.7 0.00 0.00 0.00 55 1004.8
20260504221034 59 119 2.6 8.7 0.00 0.00 0.00 56 1004.8
20260504220534 60 123 2.6 7.8 0.00 0.00 0.00 55 1004.8
20260504220137 60 104 2.6 10.4 0.00 0.00 0.00 55 1004.9
20260504220033 60 133 2.6 10.4 0.00 0.00 0.00 56 1004.8
20260504215533 60 143 4.3 7.8 0.00 0.00 0.00 56 1004.8
20260504214951 60 145 3.5 9.6 0.00 0.00 0.00 55 1004.8
20260504214617 60 104 4.3 9.6 0.00 0.00 0.00 55 1004.8
20260504214450 60 122 3.5 8.7 0.00 0.00 0.00 56 1004.8
20260504213950 60 162 2.6 9.6 0.00 0.00 0.00 56 1004.8
20260504213407 60 103 4.3 10.4 0.00 0.00 0.00 56 1005.0
20260504213113 60 137 0.0 7.8 0.00 0.00 0.00 60 1004.9
20260504212846 59 139 4.3 7.8 0.00 0.00 0.00 58 1004.9
20260504212324 59 158 2.6 7.8 0.00 0.00 0.00 58 1004.8
20260504211824 59 137 4.3 7.8 0.00 0.00 0.00 58 1004.7
20260504211540 59 103 1.7 7.0 0.00 0.00 0.00 58 1004.6
20260504211303 59 116 4.3 8.7 0.00 0.00 0.00 59 1004.5
20260504210802 59 104 4.3 8.7 0.00 0.00 0.00 59 1004.7
20260504210241 59 162 3.5 10.4 0.00 0.00 0.00 59 1004.6
20260504210027 59 195 4.3 13.0 0.00 0.00 0.00 59 1004.6
20260504205741 59 140 3.5 13.0 0.00 0.00 0.00 59 1004.6
20260504205240 59 140 3.5 12.2 0.00 0.00 0.00 60 1004.6
20260504204740 59 136 5.2 12.2 0.00 0.00 0.00 59 1004.7
20260504204505 59 130 3.5 12.2 0.00 0.00 0.00 60 1004.6
20260504204240 59 98 4.3 12.2 0.00 0.00 0.00 58 1004.6
20260504203740 58 100 4.3 11.3 0.00 0.00 0.00 59 1004.6
20260504203240 58 119 4.3 11.3 0.00 0.00 0.00 60 1004.6
20260504202739 58 103 6.1 12.2 0.00 0.00 0.00 59 1004.7
20260504202239 58 184 6.1 10.4 0.00 0.00 0.00 59 1004.6
20260504201718 58 147 4.3 13.0 0.00 0.00 0.00 60 1004.6
20260504201218 58 114 7.0 13.0 0.00 0.00 0.00 59 1004.7
20260504200717 58 108 3.5 15.6 0.00 0.00 0.00 60 1004.6
20260504200217 58 73 7.8 15.6 0.00 0.00 0.00 59 1004.5
20260504195717 58 154 6.1 15.6 0.00 0.00 0.00 59 1004.4
20260504195216 58 81 8.7 15.6 0.00 0.00 0.00 58 1004.4
20260504194716 59 95 6.1 13.9 0.00 0.00 0.00 59 1004.4
20260504194216 59 147 3.5 13.0 0.00 0.00 0.00 60 1004.4
20260504193655 58 108 4.3 14.8 0.00 0.00 0.00 60 1004.3
20260504193154 59 107 7.0 14.8 0.00 0.00 0.00 59 1004.4
20260504192654 59 68 8.7 14.8 0.00 0.00 0.00 58 1004.5
20260504192154 59 141 6.1 16.5 0.00 0.00 0.00 61 1004.4
20260504191653 58 71 7.8 16.5 0.00 0.00 0.00 61 1004.4
20260504191153 58 83 7.0 15.6 0.00 0.00 0.00 61 1004.3
20260504190653 58 62 7.0 15.6 0.00 0.00 0.00 61 1004.4
20260504190153 58 151 3.5 13.9 0.00 0.00 0.00 61 1004.4
20260504185631 59 52 7.8 13.9 0.00 0.02 0.00 60 1004.4
20260504185131 59 62 5.2 14.8 0.00 0.02 0.00 63 1004.5
20260504184548 59 87 8.7 14.8 0.00 0.02 0.00 62 1004.5